Location: Asheville, NC
(35.6000°N, 82.5500°W)
Time: 05:20:35
(UTC-04:00)

SEEDS - Pass Details

Date: 06 January 2018
Orbit: 587 x 605 km, 97.5° (Epoch: 22 April)

Event Time Altitude Azimuth Distance (km) Brightness Sun altitude
Rises 07:03:48 0° 26° (NNE) 2,832 ? -7.6°
Reaches altitude 10° 07:06:16 10° 39° (NE) 1,923 ? -7.1°
Maximum altitude 07:09:46 26° 96° (E) 1,183 ? -6.5°
Drops below altitude 10° 07:13:13 10° 153° (SSE) 1,904 ? -5.8°
Sets 07:15:39 0° 166° (SSE) 2,798 ? -5.4°
